Huntingburg, IN

8:43 AM EDT on July 29, 2017 (GMT -0400)
Huntingburg

Weather History for KHNB - December, 2011

Change the Weather History Date:

Tuesday, December 6, 2011

  Actual Average Record
Temperature  
Mean Temperature 37 °F -  
Max Temperature 39 °F 44 °F 71 °F (1998)
Min Temperature 35 °F 31 °F 8 °F (2002)
Degree Days  
Heating Degree Days 28    
Moisture  
Dew Point 35 °F    
Average Humidity 89    
Maximum Humidity 93    
Minimum Humidity 81    
Precipitation  
Precipitation 0.01 in - - ()
Sea Level Pressure  
Sea Level Pressure 30.13 in    
Wind  
Wind Speed 10 mph (NNW)    
Max Wind Speed 15 mph    
Max Gust Speed 21 mph    
Visibility 9 miles    
Events      
Averages and records for this station are not official NWS values.
T = Trace of Precipitation, MM = Missing Value Source: NWS Daily Summary

Daily Weather History Graph

Daily Weather History Graph

Search for Another Location

Airport or City:

Trip Planner

Search our weather history database for the weather conditions in past years. The results will help you decide how hot, cold, wet, or windy it might be!

Date:

Astronomy

Dec. 06, 2011 Rise Set
Actual Time 7:50 AM EST 5:27 PM EST
Civil Twilight 7:20 AM EST 5:56 PM EST
Nautical Twilight 6:47 AM EST 6:29 PM EST
Astronomical Twilight 6:15 AM EST 7:01 PM EST
Moon 2:53 PM EST (12/6) 4:09 AM EST (12/6)
Length of Visible Light 10h 36m
Length of Day
9h 37m
Waxing Gibbous, 86% of the Moon is Illuminated
Dec 6
Waxing Gibbous
Dec 10
Full
Dec 17
Last Quarter
Dec 24
New
Jan 1
First Quarter

Hourly Weather History & Observations

Time (EST) Temp. Windchill Dew Point Humidity Pressure Visibility Wind Dir Wind Speed Gust Speed Precip Events Conditions
12:35 AM 39.2 °F 32.0 °F 37.4 °F 93% 30.12 in 10.0 mi WNW 11.5 mph 17.3 mph N/A   Overcast
12:55 AM 39.2 °F 32.5 °F 37.4 °F 93% 30.13 in 10.0 mi WNW 10.4 mph - N/A   Overcast
1:15 AM 39.2 °F 31.6 °F 37.4 °F 93% 30.12 in 10.0 mi NW 12.7 mph 18.4 mph N/A   Overcast
1:35 AM 39.2 °F 33.0 °F 37.4 °F 93% 30.12 in 10.0 mi NW 9.2 mph - N/A   Overcast
1:55 AM 39.2 °F 34.2 °F 37.4 °F 93% 30.11 in 10.0 mi NW 6.9 mph - N/A   Overcast
2:15 AM 39.2 °F 32.5 °F 37.4 °F 93% 30.11 in 10.0 mi NW 10.4 mph 16.1 mph N/A   Overcast
2:35 AM 39.2 °F 32.0 °F 35.6 °F 87% 30.12 in 10.0 mi NNW 11.5 mph - N/A   Overcast
2:55 AM 39.2 °F 30.8 °F 35.6 °F 87% 30.11 in 10.0 mi NNW 15.0 mph 19.6 mph N/A   Overcast
3:15 AM 39.2 °F 30.8 °F 33.8 °F 81% 30.11 in 10.0 mi NNW 15.0 mph 20.7 mph N/A   Overcast
3:35 AM 39.2 °F 32.5 °F 33.8 °F 81% 30.12 in 10.0 mi North 10.4 mph - N/A   Overcast
3:55 AM 39.2 °F 31.6 °F 33.8 °F 81% 30.12 in 10.0 mi North 12.7 mph - N/A   Overcast
4:15 AM 39.2 °F 33.0 °F 33.8 °F 81% 30.12 in 10.0 mi North 9.2 mph - N/A   Overcast
4:35 AM 37.4 °F 30.8 °F 35.6 °F 93% 30.11 in 10.0 mi North 9.2 mph - N/A   Overcast
4:55 AM 37.4 °F 30.8 °F 35.6 °F 93% 30.11 in 10.0 mi North 9.2 mph - N/A   Overcast
5:15 AM 39.2 °F 33.0 °F 35.6 °F 87% 30.12 in 10.0 mi North 9.2 mph - N/A   Overcast
5:35 AM 39.2 °F 33.0 °F 33.8 °F 81% 30.12 in 10.0 mi North 9.2 mph - N/A   Overcast
5:55 AM 39.2 °F 33.0 °F 33.8 °F 81% 30.13 in 10.0 mi North 9.2 mph - N/A   Overcast
6:15 AM 37.4 °F 32.8 °F 35.6 °F 93% 30.14 in 10.0 mi NNW 5.8 mph - N/A   Overcast
6:35 AM 37.4 °F 31.4 °F 35.6 °F 93% 30.13 in 10.0 mi NNW 8.1 mph - N/A   Overcast
6:55 AM 37.4 °F 31.4 °F 35.6 °F 93% 30.14 in 10.0 mi NW 8.1 mph - N/A   Overcast
7:15 AM 37.4 °F 31.4 °F 35.6 °F 93% 30.14 in 10.0 mi NW 8.1 mph - N/A   Overcast
7:35 AM 37.4 °F 30.3 °F 33.8 °F 87% 30.15 in 10.0 mi NNW 10.4 mph - N/A   Overcast
7:55 AM 37.4 °F 30.3 °F 33.8 °F 87% 30.15 in 10.0 mi NNW 10.4 mph - N/A   Overcast
8:15 AM 37.4 °F 29.8 °F 33.8 °F 87% 30.15 in 10.0 mi NNW 11.5 mph - N/A   Overcast
8:55 AM 37.4 °F 29.8 °F 33.8 °F 87% 30.15 in 9.0 mi NNW 11.5 mph - N/A   Overcast
9:15 AM 37.4 °F 30.3 °F 33.8 °F 87% 30.16 in 9.0 mi NNW 10.4 mph - N/A   Overcast
9:35 AM 37.4 °F 29.3 °F 33.8 °F 87% 30.16 in 10.0 mi NNW 12.7 mph - N/A   Overcast
9:55 AM 37.4 °F 29.8 °F 33.8 °F 87% 30.16 in 10.0 mi North 11.5 mph - N/A   Overcast
10:15 AM 37.4 °F 30.3 °F 35.6 °F 93% 30.17 in 10.0 mi North 10.4 mph - N/A   Overcast
10:35 AM 37.4 °F 30.3 °F 33.8 °F 87% 30.17 in 10.0 mi NNW 10.4 mph - N/A   Overcast
10:55 AM 37.4 °F 29.3 °F 33.8 °F 87% 30.17 in 10.0 mi North 12.7 mph - N/A   Overcast
11:15 AM 37.4 °F 30.3 °F 33.8 °F 87% 30.16 in 10.0 mi North 10.4 mph - N/A   Overcast
11:35 AM 37.4 °F 31.4 °F 35.6 °F 93% 30.16 in 5.0 mi North 8.1 mph - N/A   Overcast
12:15 PM 37.4 °F 31.4 °F 35.6 °F 93% 30.14 in 8.0 mi North 8.1 mph - N/A   Overcast
12:35 PM 37.4 °F 31.4 °F 35.6 °F 93% 30.13 in 10.0 mi North 8.1 mph - N/A   Overcast
12:55 PM 37.4 °F 32.1 °F 35.6 °F 93% 30.13 in 8.0 mi NW 6.9 mph - N/A   Overcast
1:15 PM 37.4 °F 32.1 °F 35.6 °F 93% 30.13 in 10.0 mi NNW 6.9 mph - N/A   Overcast
1:35 PM 37.4 °F 30.8 °F 35.6 °F 93% 30.14 in 9.0 mi WNW 9.2 mph - N/A   Overcast
1:55 PM 37.4 °F 32.1 °F 35.6 °F 93% 30.13 in 3.0 mi NNW 6.9 mph - N/A   Overcast
2:15 PM 37.4 °F 31.4 °F 35.6 °F 93% 30.12 in 4.0 mi NNW 8.1 mph - N/A   Overcast
2:35 PM 37.4 °F 31.4 °F 35.6 °F 93% 30.12 in 4.0 mi NNW 8.1 mph - N/A   Overcast
2:55 PM 37.4 °F 33.8 °F 35.6 °F 93% 30.12 in 10.0 mi NNW 4.6 mph - N/A   Overcast
3:15 PM 37.4 °F 31.4 °F 35.6 °F 93% 30.12 in 10.0 mi North 8.1 mph - N/A   Overcast
3:35 PM 37.4 °F 32.1 °F 33.8 °F 87% 30.12 in 10.0 mi NNW 6.9 mph - N/A   Overcast
3:55 PM 37.4 °F 32.1 °F 35.6 °F 93% 30.12 in 10.0 mi NW 6.9 mph - N/A   Overcast
4:15 PM 37.4 °F 30.8 °F 35.6 °F 93% 30.12 in 10.0 mi NW 9.2 mph - N/A   Overcast
4:35 PM 37.4 °F 32.8 °F 33.8 °F 87% 30.12 in 10.0 mi NNW 5.8 mph - N/A   Overcast
4:55 PM 37.4 °F 33.8 °F 33.8 °F 87% 30.12 in 10.0 mi NNW 4.6 mph - N/A   Overcast
5:15 PM 37.4 °F 32.1 °F 33.8 °F 87% 30.12 in 10.0 mi NNW 6.9 mph - N/A   Overcast
5:35 PM 37.4 °F 32.1 °F 33.8 °F 87% 30.11 in 10.0 mi NNW 6.9 mph - N/A   Overcast
5:55 PM 37.4 °F 33.8 °F 33.8 °F 87% 30.10 in 10.0 mi NNW 4.6 mph - N/A   Overcast
6:15 PM 37.4 °F 30.8 °F 33.8 °F 87% 30.10 in 10.0 mi NNW 9.2 mph - N/A   Overcast
6:35 PM 37.4 °F 31.4 °F 33.8 °F 87% 30.11 in 10.0 mi NNW 8.1 mph - N/A   Overcast
7:35 PM 37.4 °F 32.8 °F 33.8 °F 87% 30.13 in 10.0 mi NNW 5.8 mph - N/A   Overcast
7:55 PM 37.4 °F 33.8 °F 33.8 °F 87% 30.14 in 10.0 mi WNW 4.6 mph - N/A   Overcast
8:15 PM 37.4 °F 32.8 °F 33.8 °F 87% 30.15 in 10.0 mi WNW 5.8 mph - N/A   Overcast
8:35 PM 35.6 °F 30.7 °F 33.8 °F 93% 30.15 in 10.0 mi NW 5.8 mph - N/A   Overcast
8:55 PM 35.6 °F 30.7 °F 33.8 °F 93% 30.14 in 10.0 mi NW 5.8 mph - N/A   Overcast
9:15 PM 35.6 °F 31.7 °F 33.8 °F 93% 30.13 in 7.0 mi NNW 4.6 mph - N/A   Overcast
9:35 PM 35.6 °F 30.7 °F 33.8 °F 93% 30.13 in 10.0 mi North 5.8 mph - N/A   Overcast
9:55 PM 35.6 °F 30.7 °F 33.8 °F 93% 30.14 in 10.0 mi North 5.8 mph - N/A   Overcast
10:15 PM 35.6 °F 30.7 °F 33.8 °F 93% 30.14 in 10.0 mi North 5.8 mph - N/A   Mostly Cloudy
10:35 PM 35.6 °F 30.7 °F 33.8 °F 93% 30.13 in 10.0 mi NNE 5.8 mph - N/A   Overcast
10:55 PM 35.6 °F 31.7 °F 33.8 °F 93% 30.12 in 7.0 mi North 4.6 mph - N/A   Overcast
11:15 PM 35.6 °F 31.7 °F 32.0 °F 87% 30.12 in 7.0 mi North 4.6 mph - N/A   Mostly Cloudy
11:35 PM 35.6 °F 31.7 °F 33.8 °F 93% 30.12 in 6.0 mi NNW 4.6 mph - N/A   Overcast